Regional Weather Roundup
Issued by NWS

Home | Current Version | Previous Version | Text Only | Print | Product List | Glossary On
Versions: 1 2 3 4 5 6 7 8 9 10 11 12 13 14 15 16 17 18 19 20 21 22 23 24 25 26 27 28 29 30 31 32 33 34 35 36 37 38 39 40 41 42 43 44 45 46 47 48 49 50
000
ASUS43 KOAX 160710
RWRNE

WEATHER ROUNDUP FOR NEBRASKA
NATIONAL WEATHER SERVICE OMAHA NE
200 AM CDT WED APR 16 2014

NOTES: SATELLITE DATA IS BEING USED TO AUGMENT CLOUD COVER ABOVE
       12000 FEET.
       "FAIR" INDICATES FEW OR NO CLOUDS BELOW 12,000 FEET WITH NO
       SIGNIFICANT WEATHER AND/OR OBSTRUCTIONS TO VISIBILITY.

  * THESE STATIONS DO NOT REPORT WEATHER SUCH AS RAIN...SNOW OR FOG.

NEZ001>004-019>022-054>056-160800-
NEBRASKA PANHANDLE

CITY           SKY/WX    TMP DP  RH WIND       PRES   REMARKS
SCOTTSBLUFF    CLOUDY    54  27  35 W28G51    29.59F
ALLIANCE       CLOUDY    52  31  44 W13       29.59F
CHADRON        CLOUDY    50  34  54 NE8       29.59R
KIMBALL        CLOUDY    48  30  50 NW33      29.67R
SIDNEY         CLOUDY    47  30  51 NW10      29.64R
$$

NEZ057>060-069>072-079>082-160800-
SOUTHWEST NEBRASKA

CITY           SKY/WX    TMP DP  RH WIND       PRES   REMARKS
NORTH PLATTE   CLOUDY    49  27  42 S10       29.58F
IMPERIAL       CLOUDY    46  28  49 SW10      29.60F
LEXINGTON      MOCLDY    48  29  47 S17G24    29.62F
MCCOOK         CLOUDY    49  27  42 S13       29.62F
OGALLALA       CLOUDY    50  27  40 W7        29.59F
$$

NEZ005>010-023>029-035>040-094-160800-
NORTH CENTRAL NEBRASKA

CITY           SKY/WX    TMP DP  RH WIND       PRES   REMARKS
VALENTINE      CLOUDY    57  27  31 SW10      29.52F
AINSWORTH      CLOUDY    55  26  33 SW13G20   29.55R
BROKEN BOW     MOCLDY    48  27  44 S20G29    29.59F
O`NEILL        MOCLDY    51  27  38 S18G25    29.57F
ORD            CLOUDY    49  27  42 S18G26    29.60F
THEDFORD       CLOUDY    53  24  32 SW12G18   29.57S
$$

NEZ041-046>049-061>064-073>077-083>087-160800-
SOUTH CENTRAL NEBRASKA

CITY           SKY/WX    TMP DP  RH WIND       PRES   REMARKS
GRAND ISLAND   CLOUDY    49  24  37 S23G29    29.68F
AURORA         MOCLDY    48  23  36 S17G24    29.69F
HASTINGS       PTCLDY    48  21  34 S16G24    29.69F
HEBRON         CLEAR     48  17  28 S16G25    29.77F
HOLDREGE       PTCLDY    46  26  46 S16G24    29.66F
KEARNEY *      PTCLDY    46  25  42 S23G29    29.66F
YORK           MOCLDY    46  23  39 S21G29    29.72F
$$

NEZ011>018-030>034-042>045-160800-
NORTHEAST NEBRASKA

CITY           SKY/WX    TMP DP  RH WIND       PRES   REMARKS
NORFOLK        CLOUDY    48  25  40 S22G32    29.65F
ALBION         CLOUDY    47  26  42 S18       29.65F
BLAIR          MOCLDY    46  30  52 S23G32    29.77F
COLUMBUS *     CLOUDY    48  23  37 S21G29    29.70F
FREMONT        CLOUDY    46  28  49 SE16G26   29.75F
TEKAMAH        MOCLDY    49  29  46 S23G33    29.76F
$$

NEZ050>053-065>068-078-088>093-160800-
SOUTHEAST NEBRASKA

CITY           SKY/WX    TMP DP  RH WIND       PRES   REMARKS
LINCOLN        PTCLDY    50  22  33 S23G35    29.77F
OMAHA EPPLEY   CLOUDY    48  29  47 S23G33    29.81F
BEATRICE       CLEAR     48  23  37 S23G29    29.80F
FALLS CITY     PTCLDY    45  30  55 S15       29.89F
NEBRASKA CITY  PTCLDY    44  31  59 S18       29.85F
PLATTSMOUTH    PTCLDY    45  29  53 S18G24    29.82F
$$

NEZ044-045-051>053-067-160800-
OMAHA AREA

CITY           SKY/WX    TMP DP  RH WIND       PRES   REMARKS
OMAHA EPPLEY   CLOUDY    48  29  47 S23G33    29.81F
BLAIR          MOCLDY    46  30  52 S23G32    29.77F
FREMONT        CLOUDY    46  28  49 SE16G26   29.75F
MILLARD        MOCLDY    46  30  55 SE12      29.81F
OFFUTT AFB     MOCLDY    45  31  58 SE17G25   29.83S
PLATTSMOUTH    PTCLDY    45  29  53 S18G24    29.82F
WAHOO          FAIR      46  25  44 SE14      29.77F
$$



USA.gov is the U.S. government's official web portal to all federal, state and local government web resources and services.